CW9832 Weather Reports


Display with metric or nautical units.
time (UTC)temp
F
wind
direction
speed
MPH
gust
MPH
rain 1hr
in
rain 24hr
in
rain mn
in
humidity
%
barometer
mb
20260504234241 71 183 0.0 0.0 0.00 0.00 0.00 54 1013.8
20260504233258 72 183 0.0 0.0 0.00 0.00 0.00 51 1013.7
20260504232225 72 183 0.0 0.0 0.00 0.00 0.00 50 1013.7
20260504231247 73 183 0.0 0.0 0.00 0.00 0.00 48 1013.6
20260504225041 75 183 0.0 0.0 0.00 0.00 0.00 48 1013.7
20260504224056 75 183 0.0 0.0 0.00 0.00 0.00 43 1013.8
20260504223109 76 183 0.0 0.0 0.00 0.00 0.00 43 1013.9
20260504221002 76 188 1.0 7.0 0.00 0.00 0.00 40 1013.9
20260504215931 76 213 0.0 5.0 0.00 0.00 0.00 39 1014.0
20260504214911 76 230 1.0 11.0 0.00 0.00 0.00 41 1013.9
20260504213842 77 205 2.0 11.0 0.00 0.00 0.00 42 1014.0
20260504211716 79 192 0.0 11.0 0.00 0.00 0.00 36 1013.8
20260504210651 79 190 1.0 11.0 0.00 0.00 0.00 38 1013.8
20260504204607 80 200 2.0 9.0 0.00 0.00 0.00 34 1014.0
20260504203616 80 182 2.0 14.0 0.00 0.00 0.00 36 1014.1
20260504202621 80 192 3.0 14.0 0.00 0.00 0.00 36 1014.1
20260504201633 81 200 1.0 8.0 0.00 0.00 0.00 35 1014.0
20260504200654 81 170 2.0 13.0 0.00 0.00 0.00 32 1014.2
20260504195633 80 217 2.0 8.0 0.00 0.00 0.00 34 1014.3
20260504194603 80 226 0.0 3.0 0.00 0.00 0.00 35 1014.4
20260504193610 80 150 1.0 10.0 0.00 0.00 0.00 33 1014.4
20260504192553 80 190 2.0 7.0 0.00 0.00 0.00 36 1014.7
20260504191551 80 190 0.0 3.0 0.00 0.00 0.00 33 1014.8
20260504190524 80 187 1.0 8.0 0.00 0.00 0.00 33 1014.8
20260504185546 80 191 2.0 8.0 0.00 0.00 0.00 36 1015.0
20260504184539 79 277 0.0 0.0 0.00 0.00 0.00 35 1015.2
20260504183529 79 213 2.0 8.0 0.00 0.00 0.00 36 1015.3
20260504182536 79 177 0.0 2.0 0.00 0.00 0.00 40 1015.4
20260504180320 78 281 0.0 7.0 0.00 0.00 0.00 39 1015.7
20260504175344 78 291 1.0 3.0 0.00 0.00 0.00 36 1015.8
20260504174322 78 296 1.0 0.0 0.00 0.00 0.00 35 1015.9
20260504173253 78 181 1.0 9.0 0.00 0.00 0.00 40 1016.1
20260504171158 77 212 2.0 12.0 0.00 0.00 0.00 40 1016.3
20260504170144 77 192 3.0 11.0 0.00 0.00 0.00 37 1016.4
20260504150745 72 302 0.0 10.0 0.00 0.00 0.00 47 1017.3
20260504140547 68 322 0.0 0.0 0.00 0.00 0.00 50 1017.6
20260504110709 46 324 0.0 0.0 0.00 0.00 0.00 90 1017.4
20260504081106 50 324 0.0 0.0 0.00 0.00 0.00 87 1017.0
20260504070108 50 178 0.0 0.0 0.00 0.00 0.00 85 1016.8
20260504045813 53 227 0.0 0.0 0.00 0.01 0.00 77 1017.3
20260504044836 54 227 0.0 0.0 0.00 0.01 0.00 77 1017.3
20260504043827 54 227 0.0 0.0 0.00 0.01 0.00 75 1017.2
20260504042846 54 227 0.0 0.0 0.00 0.01 0.00 74 1017.3
20260504041847 54 227 0.0 0.0 0.00 0.01 0.00 75 1017.1
20260504040910 54 227 0.0 0.0 0.00 0.01 0.00 75 1017.1
20260504034744 55 227 0.0 0.0 0.00 0.01 0.01 74 1017.1
20260504033751 55 227 0.0 0.0 0.00 0.01 0.01 74 1017.1
20260504032813 55 227 0.0 0.0 0.00 0.01 0.01 73 1017.1
20260504031741 55 227 0.0 0.0 0.00 0.01 0.01 73 1017.1
20260504030805 56 227 0.0 0.0 0.00 0.01 0.01 71 1017.0
20260504025759 56 227 0.0 0.0 0.00 0.01 0.01 71 1017.0
20260504024815 56 227 0.0 0.0 0.00 0.01 0.01 69 1017.1
20260504023816 56 227 0.0 0.0 0.00 0.01 0.01 67 1017.0
20260504022829 57 227 0.0 0.0 0.00 0.01 0.01 69 1017.0
20260504021854 57 227 0.0 0.0 0.00 0.01 0.01 66 1016.9
20260504020837 57 227 0.0 0.0 0.00 0.01 0.01 65 1016.8
20260504015858 58 227 0.0 0.0 0.00 0.01 0.01 67 1016.7
20260504012608 59 227 0.0 0.0 0.00 0.05 0.01 62 1016.3
20260504011625 59 227 0.0 0.0 0.00 0.05 0.01 65 1016.1
20260504010601 60 227 0.0 0.0 0.00 0.05 0.01 60 1016.0
20260504005550 60 227 0.0 0.0 0.00 0.05 0.01 61 1015.8
20260504004536 61 227 0.0 0.0 0.00 0.05 0.01 57 1015.8
20260504003502 62 227 0.0 0.0 0.00 0.05 0.01 58 1015.7
20260504001401 64 227 0.0 0.0 0.00 0.05 0.01 54 1015.6
20260504000328 65 227 0.0 0.0 0.00 0.05 0.01 52 1015.5
20260503235301 66 227 0.0 0.0 0.00 0.05 0.01 52 1015.5